Flag for Switzerland Weather past 2 weeks in Geneva, Geneva, Switzerland

Now
65 °F

Mild.


Feels Like: 65 °F
Forecast: 62 / 89 °F
Wind: 3 mph from Southwest

Location: Geneve-Cointrin

Current Time: Aug 4, 2015 at 4:06:58 AM

Latest Report: Aug 4, 2015 at 3:00 AM


Visibility: N/A

Pressure: 29.98 "Hg

Humidity: 80%

Dew point: 59 °F

Location of GenevaLocation

Historic Weather in Geneva — Graph

°F

Geneva temperature yesterday

Maximum temperature yesterday: 87 °F (at 7:00 PM)
Minimum temperature yesterday: 60 °F (at 6:00 AM)
Average temperature yesterday: 73 °F

Past Weeks' High & Low Weather Summary

 TemperatureHumidityPressure
High94 °F (Jul 21, 4:00 PM)94% (Jul 23, 3:00 AM)30.10 "Hg (Jul 23, 3:00 AM)
Low52 °F (Jul 30, 6:00 AM)27% (Jul 21, 7:00 PM)29.66 "Hg (Jul 24, 6:00 PM)
Average71 °F59%29.94 "Hg
* Reported Jul 20 2:00 AM — Aug 4 2:00 AM, Geneva, Weather by CustomWeather, © 2015

Note: Actual official high and low records may vary slightly from our data, if they occured in-between our weather recording intervals... More about our weather records

Advertising

Geneva weather history for previous 24 hours

 ConditionsComfort  
Time TempWeatherWind HumidityBarometerVisibility
2:00 AM
Tue, Aug 4
65 °FPassing clouds.1 mph82%30.00 "Hg22 mi
1:00 AM66 °FMild.1 mph78%30.00 "HgN/A
12:00 AM68 °FMild.2 mph73%29.98 "HgN/A
10:00 PM
Mon, Aug 3
74 °FMild.1 mph56%29.94 "HgN/A
9:00 PM78 °FWarm.2 mph46%29.93 "HgN/A
8:00 PM84 °FPassing clouds.6 mph39%29.91 "Hg28 mi
7:00 PM87 °FPleasantly warm.6 mph32%29.91 "HgN/A
6:00 PM87 °FPleasantly warm.6 mph32%29.93 "HgN/A
5:00 PM87 °FPassing clouds.8 mph34%29.94 "Hg31 mi
4:00 PM86 °FPleasantly warm.6 mph35%29.96 "HgN/A
3:00 PM85 °FWarm.7 mph44%29.98 "HgN/A
2:00 PM82 °FPassing clouds.6 mph48%30.00 "Hg31 mi
1:00 PM79 °FWarm.5 mph53%30.02 "HgN/A
12:00 PM76 °FMild.7 mph58%30.04 "HgN/A
11:00 AM75 °FPassing clouds.3 mph62%30.05 "Hg31 mi
10:00 AM72 °FMild.2 mph64%30.06 "HgN/A
9:00 AM68 °FMild.No wind76%30.08 "HgN/A
8:00 AM64 °FPassing clouds.No wind83%30.08 "Hg37 mi
7:00 AM60 °FCool.1 mph90%30.09 "HgN/A
6:00 AM60 °FCool.2 mph89%30.09 "HgN/A
5:00 AM60 °FPassing clouds.No wind90%30.08 "Hg37 mi
4:00 AM61 °FCool.1 mph89%30.08 "HgN/A
Weather by CustomWeather, © 2015

See weather overviewHow to use our weather pages